Location: Ariel
(45.9570°N, 122.5700°W)
Time: 23:54:13
(UTC-07:00)

Tiros 1 - Pass Details

Date: 26 July 2019
Orbit: 631 x 664 km, 48.4° (Epoch: 24 August)

Event Time Altitude Azimuth Distance (km) Brightness Sun altitude
Rises 17:35:30 0° 287° (WNW) 2,999 11.5 31.2°
Reaches altitude 10° 17:38:09 10° 275° (W) 2,082 11.3 30.8°
Maximum altitude 17:42:08 26° 219° (SW) 1,290 9.6 30.1°
Drops below altitude 10° 17:46:05 10° 163° (SSE) 2,064 9.7 29.4°
Sets 17:48:42 0° 151° (SSE) 2,967 10.3 28.9°
